Location: Kosice
(0.0000°N, 21.2500°E)
Time: 06:06:55
(UTC+01:00)

Cosmos 1553 Rocket - Pass Details

Date: 24 January 2021
Orbit: 941 x 1008 km, 82.9° (Epoch: 04 March)

Event Time Altitude Azimuth Distance (km) Brightness Sun altitude
Rises 18:52:29 0° 7° (N) 3,691 6.8 -15.4°
Reaches altitude 10° 18:55:06 10° 13° (NNE) 2,736 6.0 -16.0°
Maximum altitude 19:01:08 50° 87° (E) 1,226 4.1 -17.4°
Drops below altitude 10° 19:07:05 10° 161° (SSE) 2,701 6.3 -18.8°
Sets 19:09:38 0° 166° (SSE) 3,640 7.1 -19.4°
